Terminal Aerodrome Forecast
Issued by NWS Charleston, WV

Current Version | Previous Version | Graphics & Text | Print | Product List | Glossary On
Versions: 1 2 3 4 5 6 7 8 9 10 11 12 13 14 15 16 17 18 19 20 21 22 23
000
FTUS41 KRLX 031100
TAFEKN
TAF
KEKN 031121Z 0312/0412 15005KT P6SM OVC080
     FM031500 16008KT P6SM -SHRA OVC080
     FM031800 18011G17KT P6SM -SHRA OVC080
     FM032200 19010KT P6SM OVC060
     FM040700 25010KT 3SM RA BR OVC030
     FM040900 27009KT 1SM RA OVC008=

USA.gov is the U.S. government's official web portal to all federal, state and local government web resources and services.